DG5MLB Weather Reports


Display with metric or nautical units.
time (UTC)temp
F
wind
direction
speed
MPH
gust
MPH
rain 1hr
in
rain 24hr
in
rain mn
in
humidity
%
barometer
mb
20260507071519 53 254 3.0 14.0 0.00 0.20 0.00 72 1011.4
20260507070011 53 247 3.0 17.0 0.00 0.20 0.00 72 1011.3
20260507064523 53 243 1.0 16.0 0.00 0.20 0.00 73 1011.3
20260507063009 52 242 7.0 15.0 0.00 0.20 0.00 75 1011.1
20260507061522 51 258 2.0 13.0 0.00 0.20 0.00 77 1011.0
20260507060011 50 234 2.0 12.0 0.00 0.20 0.00 78 1011.0
20260507054505 50 269 2.0 13.0 0.00 0.20 0.00 80 1010.8
20260507053012 49 259 4.0 12.0 0.00 0.20 0.00 82 1010.7
20260507051507 48 217 3.0 11.0 0.00 0.20 0.00 84 1010.5
20260507050012 48 266 2.0 9.0 0.00 0.20 0.00 85 1010.4
20260507044508 47 235 1.0 7.0 0.00 0.20 0.00 85 1010.2
20260507043011 47 220 0.0 0.0 0.00 0.20 0.00 85 1010.0
20260507041536 47 220 0.0 0.0 0.00 0.20 0.00 85 1010.0
20260507040009 46 220 0.0 0.0 0.00 0.20 0.00 85 1009.9
20260507034620 46 220 0.0 0.0 0.00 0.20 0.00 85 1009.8
20260507033014 46 220 0.0 0.0 0.00 0.20 0.00 84 1009.8
20260507031523 46 220 0.0 0.0 0.00 0.20 0.00 84 1009.8
20260507030014 47 220 0.0 0.0 0.00 0.20 0.00 83 1009.8
20260507024610 47 220 0.0 0.0 0.00 0.20 0.00 82 1009.7
20260507023016 47 220 0.0 2.0 0.00 0.20 0.00 82 1009.7
20260507021504 47 252 0.0 6.0 0.00 0.20 0.00 82 1009.5
20260507020015 48 234 0.0 2.0 0.00 0.20 0.00 82 1009.4
20260507014515 48 243 0.0 0.0 0.00 0.20 0.00 82 1009.2
20260507013032 47 231 0.0 6.0 0.00 0.20 0.00 82 1009.2
20260507011505 47 207 1.0 5.0 0.00 0.20 0.00 83 1009.2
20260507010018 47 220 1.0 7.0 0.00 0.20 0.00 83 1009.3
20260507004505 47 232 1.0 4.0 0.00 0.20 0.00 83 1009.1
20260507003019 48 217 2.0 5.0 0.00 0.20 0.00 83 1009.0
20260507001508 48 188 0.0 4.0 0.00 0.20 0.00 82 1009.0
20260507000026 49 211 0.0 5.0 0.00 0.20 0.00 82 1009.1
20260506234507 49 228 0.0 7.0 0.00 0.20 0.00 82 1009.0
20260506233023 49 221 0.0 5.0 0.00 0.20 0.00 81 1009.1
20260506231509 49 221 0.0 5.0 0.00 0.20 0.00 81 1009.1
20260506230005 49 219 1.0 7.0 0.00 0.20 0.00 81 1009.0
20260506224513 49 209 3.0 9.0 0.00 0.20 0.00 81 1009.1
20260506223021 49 215 1.0 8.0 0.00 0.20 0.00 81 1008.9
20260506221510 49 148 2.0 7.0 0.00 0.20 0.00 81 1008.9
20260506220022 49 217 3.0 7.0 0.00 0.20 0.00 81 1008.7
20260506214509 49 208 2.0 8.0 0.00 0.20 0.20 81 1008.5
20260506213102 49 209 4.0 10.0 0.00 0.20 0.20 82 1008.4
20260506211510 49 232 2.0 7.0 0.00 0.20 0.20 83 1008.4
20260506210021 49 192 1.0 7.0 0.00 0.20 0.20 83 1008.4
20260506204510 50 218 1.0 7.0 0.00 0.38 0.20 82 1008.2
20260506203002 50 212 2.0 7.0 0.00 0.38 0.20 81 1008.0
20260506201512 50 219 2.0 9.0 0.00 0.38 0.20 81 1007.8
20260506200004 50 260 3.0 9.0 0.00 0.38 0.20 81 1007.6
20260506194515 50 233 3.0 9.0 0.00 0.38 0.20 80 1007.7
20260506193022 50 239 2.0 13.0 0.00 0.38 0.20 79 1007.5
20260506191517 51 219 5.0 13.0 0.00 0.38 0.20 79 1007.4
20260506190103 51 222 1.0 8.0 0.00 0.38 0.20 79 1007.3
20260506184515 51 186 3.0 11.0 0.00 0.38 0.20 79 1006.8
20260506183006 51 261 6.0 13.0 0.00 0.38 0.20 78 1006.5
20260506181519 51 246 6.0 15.0 0.00 0.38 0.20 77 1006.2
20260506180005 52 280 8.0 20.0 0.00 0.38 0.20 77 1006.2
20260506174514 52 279 2.0 15.0 0.00 0.38 0.20 78 1005.9
20260506173005 52 242 2.0 16.0 0.00 0.38 0.20 79 1005.5
20260506171535 53 272 3.0 18.0 0.00 0.38 0.20 79 1005.2
20260506170008 55 238 5.0 24.0 0.00 0.38 0.20 78 1004.9
20260506164518 58 283 3.0 9.0 0.00 0.38 0.20 83 1004.5
20260506163017 58 193 0.0 4.0 0.00 0.38 0.20 83 1003.9
20260506161512 58 182 0.0 4.0 0.01 0.38 0.20 81 1003.7
20260506160010 58 82 0.0 0.0 0.03 0.38 0.20 83 1003.6
20260506154520 56 89 0.0 0.0 0.09 0.38 0.20 85 1003.4
20260506153010 55 52 0.0 3.0 0.17 0.38 0.20 85 1003.3
20260506151520 54 61 0.0 3.0 0.18 0.37 0.19 84 1003.1
20260506150009 54 72 0.0 2.0 0.16 0.34 0.16 82 1004.2
20260506144603 55 267 0.0 8.0 0.11 0.28 0.11 80 1004.4
20260506143011 57 276 6.0 20.0 0.02 0.20 0.02 74 1003.6
20260506141520 61 315 6.0 11.0 0.00 0.18 0.00 66 1002.3
20260506140010 63 339 0.0 5.0 0.00 0.18 0.00 61 1002.3
20260506134555 64 40 0.0 4.0 0.00 0.18 0.00 60 1002.2
20260506133012 65 355 0.0 10.0 0.00 0.18 0.00 58 1002.2
20260506131504 65 107 1.0 9.0 0.00 0.18 0.00 59 1002.1
20260506130015 64 291 0.0 7.0 0.00 0.18 0.00 59 1002.3
20260506124505 64 35 2.0 6.0 0.00 0.18 0.00 59 1002.5
20260506123012 63 20 0.0 7.0 0.00 0.18 0.00 61 1002.6
20260506121511 63 71 1.0 6.0 0.00 0.18 0.00 60 1002.7
20260506120017 63 43 1.0 6.0 0.00 0.18 0.00 60 1002.9
20260506114504 63 49 0.0 0.0 0.00 0.18 0.00 59 1003.1
20260506113014 63 107 0.0 0.0 0.00 0.18 0.00 60 1003.3
20260506111622 63 28 0.0 0.0 0.00 0.18 0.00 59 1003.3
20260506110017 64 111 0.0 0.0 0.00 0.18 0.00 57 1003.6
20260506104502 64 111 0.0 0.0 0.00 0.18 0.00 58 1003.8
20260506103023 63 70 0.0 0.0 0.00 0.18 0.00 59 1003.8
20260506101504 62 37 0.0 0.0 0.00 0.18 0.00 61 1004.1
20260506100029 61 344 0.0 0.0 0.00 0.18 0.00 60 1004.0
20260506094509 62 44 0.0 0.0 0.00 0.18 0.00 61 1004.2
20260506093015 62 117 0.0 0.0 0.00 0.18 0.00 60 1004.2
20260506091505 61 74 0.0 0.0 0.00 0.18 0.00 61 1004.1
20260506090018 62 50 0.0 0.0 0.00 0.18 0.00 62 1004.2
20260506084506 61 95 0.0 0.0 0.00 0.18 0.00 64 1004.3
20260506083018 61 333 0.0 0.0 0.00 0.18 0.00 64 1004.2
20260506081507 60 113 0.0 0.0 0.00 0.18 0.00 66 1004.3
20260506073005 58 298 0.0 0.0 0.00 0.18 0.00 72 1004.7